Location: Pl�tzky
(52.0521°N, 11.8020°E)
Time: 02:20:59
(UTC+00:00)

SL-16 R/B - Pass Details

Date: 22 November 2019
Orbit: 842 x 846 km, 71.0° (Epoch: 12 December)

Event Time Altitude Azimuth Distance (km) Brightness Sun altitude
Rises 18:33:34 0° 217° (SW) 3,394 5.7 -30.2°
Reaches altitude 10° 18:36:01 10° 220° (SW) 2,463 5.0 -30.6°
Enters shadow 18:40:54 61° 258° (WSW) 957 2.6 -31.4°
